TimeEDT,TemperatureF,Dew PointF,Humidity,Sea Level PressureIn,VisibilityMPH,Wind Direction,Wind SpeedMPH,Gust SpeedMPH,PrecipitationIn,Events,Conditions,WindDirDegrees,DateUTC
12:15 AM,60.8,48.2,63,30.21,10.0,Calm,Calm,-,N/A,,Clear,0,2012-10-14 04:15:00
12:35 AM,60.8,46.4,59,30.21,10.0,Calm,Calm,-,N/A,,Clear,0,2012-10-14 04:35:00
12:55 AM,59.0,48.2,67,30.21,10.0,Calm,Calm,-,N/A,,Clear,0,2012-10-14 04:55:00
1:15 AM,60.8,46.4,59,30.19,10.0,Calm,Calm,-,N/A,,Clear,0,2012-10-14 05:15:00
1:35 AM,59.0,46.4,63,30.20,10.0,Calm,Calm,-,N/A,,Clear,0,2012-10-14 05:35:00
1:55 AM,59.0,46.4,63,30.20,10.0,Calm,Calm,-,N/A,,Clear,0,2012-10-14 05:55:00
2:15 AM,59.0,46.4,63,30.19,10.0,Calm,Calm,-,N/A,,Clear,0,2012-10-14 06:15:00
2:35 AM,59.0,46.4,63,30.19,10.0,SSE,3.5,-,N/A,,Clear,160,2012-10-14 06:35:00
2:55 AM,57.2,46.4,67,30.18,10.0,Calm,Calm,-,N/A,,Clear,0,2012-10-14 06:55:00
3:35 AM,57.2,46.4,67,30.17,10.0,SE,3.5,-,N/A,,Clear,140,2012-10-14 07:35:00
3:55 AM,55.4,46.4,72,30.16,10.0,SE,4.6,-,N/A,,Clear,140,2012-10-14 07:55:00
4:15 AM,55.4,46.4,72,30.16,10.0,SSE,5.8,-,N/A,,Clear,150,2012-10-14 08:15:00
4:35 AM,55.4,46.4,72,30.16,10.0,East,6.9,-,N/A,,Clear,80,2012-10-14 08:35:00
4:55 AM,55.4,46.4,72,30.16,10.0,East,8.1,-,N/A,,Clear,100,2012-10-14 08:55:00
5:15 AM,55.4,46.4,72,30.16,10.0,East,6.9,-,N/A,,Clear,90,2012-10-14 09:15:00
5:35 AM,55.4,46.4,72,30.17,10.0,East,8.1,-,N/A,,Clear,100,2012-10-14 09:35:00
5:55 AM,53.6,46.4,77,30.17,10.0,East,8.1,-,N/A,,Scattered Clouds,90,2012-10-14 09:55:00
6:15 AM,53.6,46.4,77,30.17,10.0,East,9.2,-,N/A,,Scattered Clouds,100,2012-10-14 10:15:00
6:35 AM,55.4,46.4,72,30.17,10.0,East,5.8,-,N/A,,Clear,90,2012-10-14 10:35:00
6:55 AM,53.6,46.4,77,30.17,10.0,East,6.9,-,N/A,,Clear,90,2012-10-14 10:55:00
7:15 AM,53.6,46.4,77,30.17,10.0,East,8.1,-,N/A,,Clear,100,2012-10-14 11:15:00
7:35 AM,53.6,46.4,77,30.17,10.0,East,6.9,-,N/A,,Clear,100,2012-10-14 11:35:00
7:55 AM,53.6,46.4,77,30.18,10.0,East,6.9,-,N/A,,Clear,90,2012-10-14 11:55:00
8:15 AM,55.4,46.4,72,30.18,10.0,Calm,Calm,-,N/A,,Clear,0,2012-10-14 12:15:00
8:35 AM,55.4,46.4,72,30.18,10.0,NE,3.5,-,N/A,,Scattered Clouds,50,2012-10-14 12:35:00
8:55 AM,57.2,46.4,67,30.18,10.0,East,6.9,-,N/A,,Mostly Cloudy,90,2012-10-14 12:55:00
9:15 AM,59.0,48.2,67,30.18,10.0,East,4.6,-,N/A,,Overcast,80,2012-10-14 13:15:00
9:35 AM,59.0,48.2,67,30.17,10.0,East,6.9,-,N/A,,Scattered Clouds,90,2012-10-14 13:35:00
9:55 AM,60.8,48.2,63,30.18,10.0,Calm,Calm,-,N/A,,Clear,0,2012-10-14 13:55:00
10:15 AM,59.0,50.0,72,30.18,10.0,Calm,Calm,-,N/A,,Clear,0,2012-10-14 14:15:00
10:35 AM,60.8,50.0,68,30.18,10.0,Calm,Calm,-,N/A,,Scattered Clouds,0,2012-10-14 14:35:00
10:55 AM,62.6,50.0,63,30.18,10.0,Calm,Calm,-,N/A,,Overcast,0,2012-10-14 14:55:00
11:15 AM,62.6,51.8,68,30.17,10.0,Calm,Calm,-,N/A,,Overcast,0,2012-10-14 15:15:00
11:35 AM,62.6,51.8,68,30.17,10.0,Calm,Calm,-,N/A,,Overcast,0,2012-10-14 15:35:00
11:55 AM,64.4,51.8,64,30.16,10.0,Calm,Calm,-,N/A,,Overcast,0,2012-10-14 15:55:00
12:15 PM,66.2,51.8,60,30.15,10.0,Calm,Calm,-,N/A,,Overcast,0,2012-10-14 16:15:00
12:35 PM,68.0,53.6,60,30.15,10.0,SW,8.1,-,N/A,,Overcast,220,2012-10-14 16:35:00
12:55 PM,68.0,53.6,60,30.13,10.0,SW,8.1,-,N/A,,Overcast,230,2012-10-14 16:55:00
1:15 PM,71.6,53.6,53,30.13,10.0,South,4.6,18.4,N/A,,Overcast,180,2012-10-14 17:15:00
1:35 PM,69.8,53.6,56,30.12,10.0,SW,11.5,26.5,N/A,,Overcast,220,2012-10-14 17:35:00
1:55 PM,69.8,53.6,56,30.11,10.0,South,3.5,9.2,N/A,,Overcast,190,2012-10-14 17:55:00
2:15 PM,71.6,53.6,53,30.10,10.0,SSW,6.9,-,N/A,,Overcast,200,2012-10-14 18:15:00
2:35 PM,69.8,53.6,56,30.08,10.0,SSW,4.6,20.7,N/A,,Overcast,210,2012-10-14 18:35:00
2:55 PM,69.8,55.4,60,30.06,10.0,SW,4.6,-,N/A,,Mostly Cloudy,220,2012-10-14 18:55:00
3:15 PM,69.8,55.4,60,30.04,10.0,South,5.8,-,N/A,,Mostly Cloudy,170,2012-10-14 19:15:00
3:35 PM,69.8,55.4,60,30.04,10.0,South,8.1,-,N/A,,Scattered Clouds,180,2012-10-14 19:35:00
3:55 PM,69.8,55.4,60,30.03,10.0,SSW,5.8,-,N/A,,Scattered Clouds,200,2012-10-14 19:55:00
4:15 PM,69.8,55.4,60,30.01,10.0,SSW,9.2,-,N/A,,Scattered Clouds,200,2012-10-14 20:15:00
4:35 PM,69.8,55.4,60,30.00,10.0,South,6.9,-,N/A,,Scattered Clouds,170,2012-10-14 20:35:00
4:55 PM,69.8,55.4,60,30.01,10.0,South,5.8,-,N/A,,Scattered Clouds,170,2012-10-14 20:55:00
5:15 PM,69.8,55.4,60,29.99,10.0,SSE,6.9,-,N/A,,Mostly Cloudy,160,2012-10-14 21:15:00
5:35 PM,68.0,55.4,64,29.98,10.0,SSE,4.6,-,N/A,,Overcast,150,2012-10-14 21:35:00
5:55 PM,68.0,55.4,64,29.99,10.0,South,4.6,-,N/A,,Overcast,170,2012-10-14 21:55:00
6:15 PM,68.0,55.4,64,29.98,10.0,Calm,Calm,-,N/A,,Overcast,0,2012-10-14 22:15:00
6:35 PM,69.8,55.4,60,29.97,10.0,SSW,6.9,-,N/A,,Overcast,200,2012-10-14 22:35:00
6:55 PM,68.0,55.4,64,29.97,10.0,SSW,4.6,-,N/A,,Overcast,210,2012-10-14 22:55:00
7:15 PM,69.8,55.4,60,29.97,10.0,SSE,5.8,-,N/A,,Overcast,150,2012-10-14 23:15:00
7:35 PM,69.8,55.4,60,29.96,10.0,South,5.8,16.1,N/A,,Overcast,190,2012-10-14 23:35:00
7:55 PM,68.0,55.4,64,29.96,10.0,SW,3.5,-,N/A,,Overcast,220,2012-10-14 23:55:00
8:15 PM,69.8,55.4,60,29.96,10.0,SSW,5.8,-,N/A,,Overcast,200,2012-10-15 00:15:00
8:35 PM,68.0,57.2,68,29.96,10.0,SSW,3.5,-,N/A,,Overcast,210,2012-10-15 00:35:00
8:55 PM,68.0,57.2,68,29.96,10.0,South,6.9,-,N/A,,Overcast,190,2012-10-15 00:55:00
9:15 PM,68.0,57.2,68,29.96,10.0,WSW,5.8,-,N/A,,Overcast,250,2012-10-15 01:15:00
9:35 PM,68.0,57.2,68,29.96,10.0,WSW,5.8,-,N/A,,Overcast,250,2012-10-15 01:35:00
9:55 PM,68.0,57.2,68,29.95,10.0,Calm,Calm,-,N/A,,Overcast,0,2012-10-15 01:55:00
10:15 PM,68.0,57.2,68,29.95,10.0,ENE,3.5,-,N/A,,Overcast,70,2012-10-15 02:15:00
10:35 PM,68.0,57.2,68,29.94,10.0,SSW,9.2,-,N/A,,Overcast,200,2012-10-15 02:35:00
10:55 PM,68.0,57.2,68,29.95,10.0,Calm,Calm,-,N/A,,Overcast,0,2012-10-15 02:55:00
11:15 PM,68.0,57.2,68,29.94,10.0,South,6.9,-,N/A,,Overcast,190,2012-10-15 03:15:00
11:35 PM,68.0,57.2,68,29.94,10.0,SW,9.2,-,N/A,,Overcast,230,2012-10-15 03:35:00
11:55 PM,68.0,59.0,73,29.93,10.0,WNW,5.8,21.9,N/A,,Overcast,300,2012-10-15 03:55:00